Location: Wildlife_Club
(35.6000°N, 81.4330°W)
Time: 23:13:02
(UTC-04:00)

A-11 Canister half - Pass Details

Date: 23 June 2019
Orbit: 1526 x 1683 km, 47.3° (Epoch: 21 July)

Event Time Altitude Azimuth Distance (km) Brightness Sun altitude
Exits shadow 04:21:36 23° 206° (SSW) 2,876 9.8 -18.1°
Maximum altitude 04:27:49 58° 136° (SE) 1,778 9.3 -17.2°
Drops below altitude 10° 04:36:54 10° 61° (ENE) 3,708 12.2 -16.0°
Sets 04:39:59 0° 58° (ENE) 4,684 13.2 -15.5°
